Overview Statistics Trail Chart Weather Telemetry Raw packets
 

This is the latest recevied weather packets stored in our database for station/object SV2RIM-2. If no packets are shown the sender has not sent any weather packets the latest 10 day(s).

<< 1 2 3 4 5 6 >>
Time Temp. Humidity Pressure Rain* Wind** Luminosity Snow
1788589245 23.33° C 45% 1018.9 hPa - - - -
1788588619 22.78° C 45% 1018.9 hPa - - - -
1788588019 22.22° C 46% 1019 hPa - - - -
1788587419 21.67° C 47% 1018.9 hPa - - - -
1788586818 21.11° C 47% 1018.9 hPa - - - -
1788586219 21.11° C 48% 1018.8 hPa - - - -
1788585619 20.56° C 48% 1018.8 hPa - - - -
1788585019 21.11° C 47% 1018.8 hPa - - - -
1788584419 21.11° C 47% 1018.7 hPa - - - -
1788583819 20.56° C 47% 1018.6 hPa - - - -
1788583219 20.56° C 47% 1018.5 hPa - - - -
1788582619 20.56° C 47% 1018.4 hPa - - - -
1788582019 20.56° C 46% 1018.3 hPa - - - -
1788581419 20.56° C 46% 1018.1 hPa - - - -
1788580818 20° C 46% 1018 hPa - - - -
1788580219 20° C 47% 1017.9 hPa - - - -
1788579619 20° C 46% 1017.9 hPa - - - -
1788579019 20° C 46% 1017.8 hPa - - - -
1788578419 20.56° C 45% 1017.7 hPa - - - -
1788577818 20.56° C 45% 1017.5 hPa - - - -
1788577219 20.56° C 45% 1017.5 hPa - - - -
1788576619 20° C 45% 1017.5 hPa - - - -
1788576019 20.56° C 44% 1017.4 hPa - - - -
1788575419 21.11° C 43% 1017.5 hPa - - - -
1788574819 21.11° C 43% 1017.4 hPa - - - -

* Rain since midnight (hover to see other rain measurements)
** Current wind speed in m/s (hover to see current wind gust speed)